﻿測定場所 (Monitoring sites),日付 (Measurement date),時間 (Measurement time),線量率 最大値 (max) μGy/h,線量率 最小値 (min) μGy/h,線量率 平均値 (average) μGy/h,
新宿 (Shinjuku),2011-12-18,23:00～23:59,0.0552,0.0511,0.0529,
新宿 (Shinjuku),2011-12-18,22:00～22:59,0.0554,0.0504,0.0529,
新宿 (Shinjuku),2011-12-18,21:00～21:59,0.0548,0.0503,0.0524,
新宿 (Shinjuku),2011-12-18,20:00～20:59,0.0552,0.0503,0.0530,
新宿 (Shinjuku),2011-12-18,19:00～19:59,0.0548,0.0496,0.0529,
新宿 (Shinjuku),2011-12-18,18:00～18:59,0.0559,0.0497,0.0525,
新宿 (Shinjuku),2011-12-18,17:00～17:59,0.0552,0.0500,0.0523,
新宿 (Shinjuku),2011-12-18,16:00～16:59,0.0543,0.0497,0.0520,
新宿 (Shinjuku),2011-12-18,15:00～15:59,0.0551,0.0511,0.0531,
新宿 (Shinjuku),2011-12-18,14:00～14:59,0.0554,0.0503,0.0529,
新宿 (Shinjuku),2011-12-18,13:00～13:59,0.0557,0.0500,0.0526,
新宿 (Shinjuku),2011-12-18,12:00～12:59,0.0551,0.0503,0.0527,
新宿 (Shinjuku),2011-12-18,11:00～11:59,0.0553,0.0492,0.0529,
新宿 (Shinjuku),2011-12-18,10:00～10:59,0.0562,0.0506,0.0532,
新宿 (Shinjuku),2011-12-18,09:00～09:59,0.0560,0.0513,0.0535,
新宿 (Shinjuku),2011-12-18,08:00～08:59,0.0567,0.0521,0.0542,
新宿 (Shinjuku),2011-12-18,07:00～07:59,0.0561,0.0512,0.0541,
新宿 (Shinjuku),2011-12-18,06:00～06:59,0.0562,0.0517,0.0540,
新宿 (Shinjuku),2011-12-18,05:00～05:59,0.0555,0.0512,0.0533,
新宿 (Shinjuku),2011-12-18,04:00～04:59,0.0555,0.0504,0.0528,
新宿 (Shinjuku),2011-12-18,03:00～03:59,0.0557,0.0503,0.0529,
新宿 (Shinjuku),2011-12-18,02:00～02:59,0.0549,0.0492,0.0525,
新宿 (Shinjuku),2011-12-18,01:00～01:59,0.0565,0.0501,0.0527,
新宿 (Shinjuku),2011-12-18,00:00～00:59,0.0546,0.0498,0.0523,
新宿 (Shinjuku),2011-12-17,23:00～23:59,0.0558,0.0498,0.0525,
新宿 (Shinjuku),2011-12-17,22:00～22:59,0.0548,0.0491,0.0519,
新宿 (Shinjuku),2011-12-17,21:00～21:59,0.0549,0.0499,0.0525,
新宿 (Shinjuku),2011-12-17,20:00～20:59,0.0548,0.0502,0.0523,
新宿 (Shinjuku),2011-12-17,19:00～19:59,0.0549,0.0489,0.0521,
新宿 (Shinjuku),2011-12-17,18:00～18:59,0.0551,0.0503,0.0523,
新宿 (Shinjuku),2011-12-17,17:00～17:59,0.0544,0.0496,0.0520,
新宿 (Shinjuku),2011-12-17,16:00～16:59,0.0553,0.0495,0.0521,
新宿 (Shinjuku),2011-12-17,15:00～15:59,0.0548,0.0502,0.0522,
新宿 (Shinjuku),2011-12-17,14:00～14:59,0.0544,0.0507,0.0524,
新宿 (Shinjuku),2011-12-17,13:00～13:59,0.0548,0.0503,0.0524,
新宿 (Shinjuku),2011-12-17,12:00～12:59,0.0553,0.0499,0.0525,
新宿 (Shinjuku),2011-12-17,11:00～11:59,0.0555,0.0496,0.0530,
新宿 (Shinjuku),2011-12-17,10:00～10:59,0.0559,0.0509,0.0532,
新宿 (Shinjuku),2011-12-17,09:00～09:59,0.0556,0.0519,0.0533,
新宿 (Shinjuku),2011-12-17,08:00～08:59,0.0561,0.0506,0.0535,
新宿 (Shinjuku),2011-12-17,07:00～07:59,0.0567,0.0505,0.0533,
新宿 (Shinjuku),2011-12-17,06:00～06:59,0.0562,0.0504,0.0531,
新宿 (Shinjuku),2011-12-17,05:00～05:59,0.0556,0.0507,0.0532,
新宿 (Shinjuku),2011-12-17,04:00～04:59,0.0562,0.0507,0.0528,
新宿 (Shinjuku),2011-12-17,03:00～03:59,0.0547,0.0501,0.0527,
新宿 (Shinjuku),2011-12-17,02:00～02:59,0.0548,0.0498,0.0524,
新宿 (Shinjuku),2011-12-17,01:00～01:59,0.0565,0.0499,0.0527,
新宿 (Shinjuku),2011-12-17,00:00～00:59,0.0548,0.0506,0.0526,
新宿 (Shinjuku),2011-12-16,23:00～23:59,0.0553,0.0510,0.0527,
新宿 (Shinjuku),2011-12-16,22:00～22:59,0.0561,0.0499,0.0527,
新宿 (Shinjuku),2011-12-16,21:00～21:59,0.0550,0.0503,0.0526,
新宿 (Shinjuku),2011-12-16,20:00～20:59,0.0545,0.0492,0.0521,
新宿 (Shinjuku),2011-12-16,19:00～19:59,0.0551,0.0492,0.0518,
新宿 (Shinjuku),2011-12-16,18:00～18:59,0.0551,0.0496,0.0521,
新宿 (Shinjuku),2011-12-16,17:00～17:59,0.0544,0.0497,0.0521,
新宿 (Shinjuku),2011-12-16,16:00～16:59,0.0561,0.0501,0.0523,
新宿 (Shinjuku),2011-12-16,15:00～15:59,0.0550,0.0506,0.0531,
新宿 (Shinjuku),2011-12-16,14:00～14:59,0.0565,0.0506,0.0530,
新宿 (Shinjuku),2011-12-16,13:00～13:59,0.0548,0.0505,0.0531,
新宿 (Shinjuku),2011-12-16,12:00～12:59,0.0560,0.0506,0.0535,
新宿 (Shinjuku),2011-12-16,11:00～11:59,0.0564,0.0516,0.0537,
新宿 (Shinjuku),2011-12-16,10:00～10:59,0.0562,0.0510,0.0537,
新宿 (Shinjuku),2011-12-16,09:00～09:59,0.0566,0.0507,0.0535,
新宿 (Shinjuku),2011-12-16,08:00～08:59,0.0556,0.0505,0.0534,
新宿 (Shinjuku),2011-12-16,07:00～07:59,0.0561,0.0509,0.0534,
新宿 (Shinjuku),2011-12-16,06:00～06:59,0.0560,0.0506,0.0530,
新宿 (Shinjuku),2011-12-16,05:00～05:59,0.0561,0.0505,0.0529,
新宿 (Shinjuku),2011-12-16,04:00～04:59,0.0563,0.0509,0.0531,
新宿 (Shinjuku),2011-12-16,03:00～03:59,0.0557,0.0506,0.0527,
新宿 (Shinjuku),2011-12-16,02:00～02:59,0.0562,0.0496,0.0531,
新宿 (Shinjuku),2011-12-16,01:00～01:59,0.0550,0.0498,0.0530,
新宿 (Shinjuku),2011-12-16,00:00～00:59,0.0570,0.0510,0.0533,
新宿 (Shinjuku),2011-12-15,23:00～23:59,0.0565,0.0502,0.0530,
新宿 (Shinjuku),2011-12-15,22:00～22:59,0.0553,0.0509,0.0530,
新宿 (Shinjuku),2011-12-15,21:00～21:59,0.0549,0.0505,0.0530,
新宿 (Shinjuku),2011-12-15,20:00～20:59,0.0558,0.0510,0.0532,
新宿 (Shinjuku),2011-12-15,19:00～19:59,0.0551,0.0502,0.0529,
新宿 (Shinjuku),2011-12-15,18:00～18:59,0.0562,0.0505,0.0530,
新宿 (Shinjuku),2011-12-15,17:00～17:59,0.0551,0.0496,0.0526,
新宿 (Shinjuku),2011-12-15,16:00～16:59,0.0556,0.0511,0.0527,
新宿 (Shinjuku),2011-12-15,15:00～15:59,0.0555,0.0503,0.0530,
新宿 (Shinjuku),2011-12-15,14:00～14:59,0.0560,0.0506,0.0530,
新宿 (Shinjuku),2011-12-15,13:00～13:59,0.0558,0.0504,0.0534,
新宿 (Shinjuku),2011-12-15,12:00～12:59,0.0560,0.0503,0.0532,
新宿 (Shinjuku),2011-12-15,11:00～11:59,0.0551,0.0507,0.0532,
新宿 (Shinjuku),2011-12-15,10:00～10:59,0.0566,0.0501,0.0535,
新宿 (Shinjuku),2011-12-15,09:00～09:59,0.0578,0.0517,0.0543,
新宿 (Shinjuku),2011-12-15,08:00～08:59,0.0576,0.0513,0.0539,
新宿 (Shinjuku),2011-12-15,07:00～07:59,0.0562,0.0513,0.0533,
新宿 (Shinjuku),2011-12-15,06:00～06:59,0.0562,0.0510,0.0531,
新宿 (Shinjuku),2011-12-15,05:00～05:59,0.0551,0.0512,0.0532,
新宿 (Shinjuku),2011-12-15,04:00～04:59,0.0556,0.0504,0.0533,
新宿 (Shinjuku),2011-12-15,03:00～03:59,0.0569,0.0500,0.0537,
新宿 (Shinjuku),2011-12-15,02:00～02:59,0.0569,0.0510,0.0536,
新宿 (Shinjuku),2011-12-15,01:00～01:59,0.0555,0.0509,0.0532,
新宿 (Shinjuku),2011-12-15,00:00～00:59,0.0559,0.0513,0.0533,
新宿 (Shinjuku),2011-12-14,23:00～23:59,0.0547,0.0500,0.0525,
新宿 (Shinjuku),2011-12-14,22:00～22:59,0.0557,0.0504,0.0528,
新宿 (Shinjuku),2011-12-14,21:00～21:59,0.0550,0.0507,0.0529,
新宿 (Shinjuku),2011-12-14,20:00～20:59,0.0551,0.0506,0.0527,
新宿 (Shinjuku),2011-12-14,19:00～19:59,0.0557,0.0506,0.0530,
新宿 (Shinjuku),2011-12-14,18:00～18:59,0.0565,0.0496,0.0529,
新宿 (Shinjuku),2011-12-14,17:00～17:59,0.0564,0.0510,0.0534,
新宿 (Shinjuku),2011-12-14,16:00～16:59,0.0551,0.0499,0.0528,
新宿 (Shinjuku),2011-12-14,15:00～15:59,0.0555,0.0500,0.0529,
新宿 (Shinjuku),2011-12-14,14:00～14:59,0.0551,0.0498,0.0531,
新宿 (Shinjuku),2011-12-14,13:00～13:59,0.0560,0.0515,0.0535,
新宿 (Shinjuku),2011-12-14,12:00～12:59,0.0558,0.0506,0.0535,
新宿 (Shinjuku),2011-12-14,11:00～11:59,0.0565,0.0513,0.0536,
新宿 (Shinjuku),2011-12-14,10:00～10:59,0.0570,0.0506,0.0536,
新宿 (Shinjuku),2011-12-14,09:00～09:59,0.0570,0.0519,0.0544,
新宿 (Shinjuku),2011-12-14,08:00～08:59,0.0579,0.0523,0.0553,
新宿 (Shinjuku),2011-12-14,07:00～07:59,0.0605,0.0540,0.0572,
新宿 (Shinjuku),2011-12-14,06:00～06:59,0.0602,0.0540,0.0571,
新宿 (Shinjuku),2011-12-14,05:00～05:59,0.0578,0.0509,0.0542,
新宿 (Shinjuku),2011-12-14,04:00～04:59,0.0561,0.0508,0.0533,
新宿 (Shinjuku),2011-12-14,03:00～03:59,0.0554,0.0509,0.0528,
新宿 (Shinjuku),2011-12-14,02:00～02:59,0.0558,0.0499,0.0524,
新宿 (Shinjuku),2011-12-14,01:00～01:59,0.0551,0.0494,0.0524,
新宿 (Shinjuku),2011-12-14,00:00～00:59,0.0546,0.0500,0.0523,
新宿 (Shinjuku),2011-12-13,23:00～23:59,0.0550,0.0503,0.0527,
新宿 (Shinjuku),2011-12-13,22:00～22:59,0.0562,0.0503,0.0525,
新宿 (Shinjuku),2011-12-13,21:00～21:59,0.0547,0.0497,0.0523,
新宿 (Shinjuku),2011-12-13,20:00～20:59,0.0552,0.0501,0.0523,
新宿 (Shinjuku),2011-12-13,19:00～19:59,0.0547,0.0499,0.0527,
新宿 (Shinjuku),2011-12-13,18:00～18:59,0.0551,0.0505,0.0526,
新宿 (Shinjuku),2011-12-13,17:00～17:59,0.0555,0.0504,0.0526,
新宿 (Shinjuku),2011-12-13,16:00～16:59,0.0564,0.0496,0.0524,
新宿 (Shinjuku),2011-12-13,15:00～15:59,0.0549,0.0504,0.0525,
新宿 (Shinjuku),2011-12-13,14:00～14:59,0.0546,0.0501,0.0526,
新宿 (Shinjuku),2011-12-13,13:00～13:59,0.0551,0.0500,0.0525,
新宿 (Shinjuku),2011-12-13,12:00～12:59,0.0550,0.0504,0.0524,
新宿 (Shinjuku),2011-12-13,11:00～11:59,0.0555,0.0505,0.0526,
新宿 (Shinjuku),2011-12-13,10:00～10:59,0.0555,0.0499,0.0527,
新宿 (Shinjuku),2011-12-13,09:00～09:59,0.0561,0.0505,0.0529,
新宿 (Shinjuku),2011-12-13,08:00～08:59,0.0555,0.0509,0.0530,
新宿 (Shinjuku),2011-12-13,07:00～07:59,0.0567,0.0513,0.0537,
新宿 (Shinjuku),2011-12-13,06:00～06:59,0.0564,0.0509,0.0536,
新宿 (Shinjuku),2011-12-13,05:00～05:59,0.0567,0.0513,0.0535,
新宿 (Shinjuku),2011-12-13,04:00～04:59,0.0555,0.0516,0.0536,
新宿 (Shinjuku),2011-12-13,03:00～03:59,0.0562,0.0496,0.0532,
新宿 (Shinjuku),2011-12-13,02:00～02:59,0.0556,0.0505,0.0533,
新宿 (Shinjuku),2011-12-13,01:00～01:59,0.0558,0.0509,0.0528,
新宿 (Shinjuku),2011-12-13,00:00～00:59,0.0556,0.0512,0.0529,
新宿 (Shinjuku),2011-12-12,23:00～23:59,0.0551,0.0513,0.0528,
新宿 (Shinjuku),2011-12-12,22:00～22:59,0.0554,0.0504,0.0531,
新宿 (Shinjuku),2011-12-12,21:00～21:59,0.0559,0.0501,0.0528,
新宿 (Shinjuku),2011-12-12,20:00～20:59,0.0545,0.0499,0.0524,
新宿 (Shinjuku),2011-12-12,19:00～19:59,0.0548,0.0497,0.0524,
新宿 (Shinjuku),2011-12-12,18:00～18:59,0.0546,0.0508,0.0524,
新宿 (Shinjuku),2011-12-12,17:00～17:59,0.0552,0.0496,0.0521,
新宿 (Shinjuku),2011-12-12,16:00～16:59,0.0543,0.0492,0.0523,
新宿 (Shinjuku),2011-12-12,15:00～15:59,0.0553,0.0495,0.0522,
新宿 (Shinjuku),2011-12-12,14:00～14:59,0.0548,0.0501,0.0523,
新宿 (Shinjuku),2011-12-12,13:00～13:59,0.0548,0.0503,0.0525,
新宿 (Shinjuku),2011-12-12,12:00～12:59,0.0550,0.0501,0.0528,
新宿 (Shinjuku),2011-12-12,11:00～11:59,0.0551,0.0498,0.0526,
新宿 (Shinjuku),2011-12-12,10:00～10:59,0.0552,0.0506,0.0528,
新宿 (Shinjuku),2011-12-12,09:00～09:59,0.0554,0.0509,0.0532,
新宿 (Shinjuku),2011-12-12,08:00～08:59,0.0560,0.0503,0.0533,
新宿 (Shinjuku),2011-12-12,07:00～07:59,0.0563,0.0510,0.0536,
新宿 (Shinjuku),2011-12-12,06:00～06:59,0.0552,0.0514,0.0533,
新宿 (Shinjuku),2011-12-12,05:00～05:59,0.0563,0.0509,0.0538,
新宿 (Shinjuku),2011-12-12,04:00～04:59,0.0562,0.0512,0.0538,
新宿 (Shinjuku),2011-12-12,03:00～03:59,0.0567,0.0514,0.0543,
新宿 (Shinjuku),2011-12-12,02:00～02:59,0.0565,0.0516,0.0541,
新宿 (Shinjuku),2011-12-12,01:00～01:59,0.0568,0.0508,0.0537,
新宿 (Shinjuku),2011-12-12,00:00～00:59,0.0566,0.0500,0.0536,
